Regional Weather Roundup
Issued by NWS

Home | Current Version | Previous Version | Graphics & Text | Print | Product List | Glossary On
Versions: 1 2 3 4 5 6 7 8 9 10 11 12 13 14 15 16 17 18 19 20 21 22 23 24 25 26 27 28 29 30 31 32 33 34 35 36 37 38 39 40 41 42 43 44 45 46 47 48 49 50
398
ASUS45 KCYS 242010
RWRWY

WYOMING REGIONAL WEATHER ROUNDUP
NATIONAL WEATHER SERVICE CHEYENNE WY
200 PM MDT THU MAY 24 2018

NOTE:  "FAIR" INDICATES FEW OR NO CLOUDS BELOW 12,000 FEET
WITH NO SIGNIFICANT WEATHER AND/OR OBSTRUCTIONS TO VISIBILITY.

WYZ001-242100-
YELLOWSTONE NATIONAL PARK

CITY           SKY/WX    TMP DP  RH WIND       PRES   REMARKS
LK YELLOWSTONE NOT AVBL
W YELLOWSTONE  NOT AVBL

$$
WYZ002>013-054>058-071-098>099-242100-
NORTHERN WYOMING

CITY           SKY/WX    TMP DP  RH WIND       PRES   REMARKS
JACKSON        LGT RAIN  61  47  59 SW8       30.19F
CODY           FAIR      71  44  37 W16G25    30.05F
GREYBULL       FAIR      76  49  38 SW8       29.98F
WORLAND        FAIR      76  45  33 VRB5      29.99F
SHERIDAN       FAIR      79  53  40 VRB3      29.96R
BUFFALO        FAIR      76  44  32 N5        30.00S
GILLETTE       FAIR      77  46  33 SW10      29.98S
NEWCASTLE      FAIR      73  46  38 SE8       30.01F

$$
WYZ014>020-022>026-101>103-242100-
CENTRAL WYOMING

CITY           SKY/WX    TMP DP  RH WIND       PRES   REMARKS
BIG PINEY      PTSUNNY   67  41  38 W14G20    30.22S
PINEDALE       MOCLDY    63  37  39 W9        30.23F
DUBOIS         CLOUDY    61  37  41 W14G23    30.19S
LANDER         FAIR      74  41  30 SW8G16    30.07F
RIVERTON       FAIR      73  44  35 SW10G17   30.09F
CASPER         FAIR      75  43  31 W18G28    30.06F
DOUGLAS        FAIR      76  46  34 W14G22    30.05F

$$
WYZ021-027>030-104>119-242100-
SOUTHERN WYOMING

CITY           SKY/WX    TMP DP  RH WIND       PRES   REMARKS
EVANSTON       PTSUNNY   70  39  32 W14G21    30.23F
FORT BRIDGER   FAIR      73  35  25 W14G23    30.25F
ROCK SPRINGS   FAIR      68  37  32 NW9G20    30.21F
DIXON          FAIR      73  32  22 W14G21    30.23S
RAWLINS        FAIR      71  34  25 W20G28    30.19F
SARATOGA       FAIR      72  32  23 W20G25    30.23S
LARAMIE        FAIR      74  31  20 W17G30    30.19F
CHEYENNE       PTSUNNY   74  40  29 SW21G29   30.13F
TORRINGTON     FAIR      82  47  29 NW12G17   30.00F
PINE BLUFFS    FAIR      77  37  24 W5G18     30.08F

$$




USA.gov is the U.S. government's official web portal to all federal, state and local government web resources and services.